• Join FlightAware (Why Join?)
  • Login
  • US Flag 
02:05AM EDT


 

Airport Tracker/Info


-or-


 

Live Flight TrackerFlight Track Log ✈ MPE9041 ✈ 02-May-2012 ✈ CYEG - CYYC

Flight Track Log - Related Links

Times and Time Zones

All times are in EDT time to prevent confusion due to time zone crossing. See the MPE9041 flight status page for this flight to view local times or setup timezone preferences in your user account.

Time Position Orientation Groundspeed Altitude Reporting Facility
EDT Latitude Longitude Course Direction KTS MPH feet Rate Location/Type
05:15PM 53.2053 -113.5667 360° North  Level FlightAware Approximate
05:15PM 53.2500 -113.5667 141° Southeast 150 173 4,600  Level Edmonton Center
05:16PM 53.2000 -113.5000 180° South 190 219 6,800 2,400 Climbing Edmonton Center
05:17PM 53.1333 -113.5000 180° South 250 288 9,500 2,460 Climbing Edmonton Center
05:18PM 53.0500 -113.5000 186° South 300 345 11,800 2,820 Climbing Edmonton Center
05:19PM 52.9500 -113.5167 180° South 350 403 15,200 3,360 Climbing Edmonton Center
05:20PM 52.8500 -113.5167 180° South 360 414 18,600 3,000 Climbing Edmonton Center
05:21PM 52.7333 -113.5167 185° South 370 426 21,300 1,920 Climbing Edmonton Center
05:22PM 52.6167 -113.5333 185° South 400 460 22,500 840 Climbing Edmonton Center
05:23PM 52.5000 -113.5500 185° South 430 495 23,000 240 Climbing Edmonton Center
05:24PM 52.3833 -113.5667 180° South 430 495 23,000  Level Edmonton Center
05:25PM 52.2667 -113.5667 180° South 420 483 23,000 -360 Level Edmonton Center
05:26PM 52.1667 -113.5667 189° South 420 483 22,300 -1,440 Descending Edmonton Center
05:27PM 52.0333 -113.6000 187° South 380 437 20,200 -2,160 Descending Edmonton Center
05:28PM 51.9500 -113.6167 174° South 350 403 18,000 -2,520 Descending Edmonton Center
05:29PM 51.8500 -113.6000 197° South 320 368 15,200 -2,280 Descending Edmonton Center
05:30PM 51.7833 -113.6333 194° South 300 345 13,500 -1,800 Descending Edmonton Center
05:31PM 51.7000 -113.6667 187° South 290 334 11,600 -1,800 Descending Edmonton Center
05:32PM 51.6167 -113.6833 197° South 290 334 9,900 -1,620 Descending Edmonton Center
05:33PM 51.5500 -113.7167 212° Southwest 280 322 8,400 -1,500 Descending Edmonton Center
05:34PM 51.4833 -113.7833 218° Southwest 270 311 6,900 -1,200 Descending Edmonton Center
05:35PM 51.4167 -113.8667 220° Southwest 260 299 6,100 -660 Descending Edmonton Center
05:36PM 51.3667 -113.9333 220° Southwest 260 299 5,600 -300 Descending Edmonton Center
05:37PM 51.3167 -114.0000 205° Southwest 230 265 5,500 -60 Descending Edmonton Center
05:38PM 51.2500 -114.0500 163° South 210 242 5,500  Level Edmonton Center
05:39PM 51.2167 -114.0333 192° South 180 207 5,500 -300 Level Edmonton Center
05:40PM 51.1667 -114.0500 168° South 170 196 5,000 -720 Descending Edmonton Center
05:41PM 51.1167 -114.0333 168° South 140 161 4,100 -900 Descending Edmonton Center